Lid_Strength_Index
20 20 20 20 21 20 22 20 24 21 20 19 16 15 15 15 15 16 15 16 17 17 17 17 17 17 17 17 18 19 20 20 21 21 21 22 22 22 22 21 22 22 22 22
20 20 21 22 20 20 20 20 20 20 20 16 14 15 16 15 17 16 17 17 17 17 17 17 17 17 17 17 18 19 20 21 21 22 22 23 23 23 23 23 23 23 23 23
20 19 19 21 20 20 20 20 19 21 17 14 17 16 15 15 17 16 16 15 16 16 16 16 16 16 17 18 19 20 20 21 22 22 23 23 23 23 23 23 23 23 24 22
19 21 22 18 18 15 17 16 16 17 15 15 17 16 15 16 15 15 15 16 16 16 17 17 17 17 17 19 20 20 21 22 22 23 23 24 23 23 22 23 23 23 23 22
19 20 18 17 18 17 17 17 14 15 15 14 15 16 15 15 16 14 17 17 16 16 18 18 17 18 18 20 21 21 21 22 23 23 24 24 23 23 22 22 22 22 22 23
18 20 24 17 16 14 14 19 13 12 12 13 15 18 16 17 18 18 19 19 19 20 20 18 19 18 19 20 21 22 22 22 23 23 23 23 23 22 21 22 21 20 21 23
17 19 19 15 16 14 19 17 13 12 12 14 15 14 14 18 17 18 19 20 20 20 19 19 18 19 20 20 21 21 22 23 23 23 23 22 22 22 22 22 21 22 22 23
17 18 20 14 16 16 13 14 14 13 13 13 13 13 15 16 17 18 19 20 20 19 20 19 18 19 20 20 20 21 23 23 23 23 22 22 22 22 21 22 22 22 22 22
15 16 14 14 14 14 14 13 13 13 13 13 13 13 14 14 15 15 17 17 19 19 20 21 20 18 20 20 21 22 23 24 24 23 22 22 22 22 22 22 22 22 21 22
15 14 13 14 14 15 14 13 13 13 13 12 12 12 13 13 14 15 15 17 18 19 20 20 20 19 19 21 22 23 23 24 24 23 23 23 22 22 22 22 22 22 21 22
15 13 13 13 12 11 13 13 13 13 14 13 12 12 12 12 12 14 15 17 18 19 20 20 20 20 20 21 22 22 23 23 23 23 23 23 22 22 22 21 21 22 22 22
15 11 11 11 11 11 11 11 11 12 14 13 14 13 14 14 15 16 18 19 19 19 19 20 19 21 21 21 21 22 23 23 23 23 23 23 23 22 19 19 18 18 17 19
12 12 11 11 12 11 11 11 11 13 13 13 14 15 15 16 17 17 19 19 19 18 19 19 19 21 20 21 21 22 22 22 22 23 23 23 22 22 23 20 18 18 17 17
13 12 13 12 12 10 12 11 14 15 15 15 15 17 17 18 19 19 18 17 18 19 20 19 19 21 20 21 20 21 21 21 21 22 22 22 22 22 22 22 22 21 17 17
12 13 11 12 14 14 15 15 16 16 16 16 17 17 17 18 18 17 19 20 20 19 20 20 20 21 20 20 20 20 20 21 21 21 21 22 22 22 22 22 22 21 21 18
12 14 16 15 14 15 15 17 16 14 17 17 17 17 18 18 18 18 20 20 19 19 20 19 19 20 20 20 19 19 19 20 20 21 21 21 21 21 22 22 22 21 22 22
17 18 18 17 14 13 13 13 14 17 19 19 20 21 20 19 20 20 20 19 19 20 19 18 18 19 19 19 19 19 18 19 20 20 21 21 21 21 21 21 22 22 22 22
24 23 24 23 23 22 22 23 23 24 23 24 25 25 23 22 22 21 20 22 23 22 19 18 17 19 19 18 18 18 18 19 20 20 20 20 20 20 20 21 22 22 22 21
30 30 29 27 29 28 28 27 26 26 27 27 27 26 23 23 22 21 22 23 22 21 20 18 16 18 18 17 17 17 17 19 19 20 20 20 20 20 20 21 22 22 22 21
29 29 29 30 29 29 29 29 29 28 28 28 28 28 26 26 25 24 23 18 17 17 18 17 16 18 18 18 16 17 17 18 19 20 20 20 20 20 20 21 22 22 23 21
31 31 31 31 29 30 30 30 29 27 27 29 28 26 25 27 26 24 23 19 19 15 17 16 16 17 17 17 16 17 17 18 19 19 20 20 20 20 21 21 22 23 23 21
32 31 29 29 29 29 31 30 30 29 28 27 26 26 26 24 25 23 20 18 17 15 16 14 14 16 16 16 16 16 16 17 19 19 20 20 19 20 21 21 22 23 22 21
32 32 30 32 31 29 29 30 29 29 29 28 27 26 25 23 22 22 20 19 17 16 15 14 14 14 14 15 15 15 16 17 17 18 19 19 18 19 20 21 21 22 22 22
33 33 31 30 30 32 31 28 29 28 27 27 26 24 24 23 22 20 18 17 16 15 13 14 11 12 13 14 14 14 15 16 16 16 17 17 17 18 19 20 21 22 22 22
34 33 31 31 31 29 30 28 27 27 24 24 24 22 22 21 21 23 21 19 17 15 14 14 11 11 13 13 14 14 14 15 15 16 17 17 18 18 19 20 21 22 22 22
34 31 31 31 29 28 27 28 27 26 26 26 24 24 22 22 20 19 19 19 19 17 15 13 13 12 12 13 13 13 14 15 15 15 16 17 18 18 19 20 21 22 22 22
30 29 31 30 30 32 30 28 28 28 27 26 26 24 24 22 21 21 20 19 18 17 15 14 13 13 13 13 13 13 14 14 14 15 16 17 18 18 19 20 21 21 22 22